Airfield :
LOGIN :

Register | Disclaimer

   EN    FR    IT 

 










Legend :    VFR   Marginal VFR   IFR   Intensive IFR   Very Intensive IFR
Visi :
Ceiling :
>= 8 km
>= 3000ft
5 to 8 km
1000 to 3000 ft
1500m to 5 km
500 to 1000 ft
800 to 1500m
200 to 500 ft
< 800m
< 200 ft
Symbols :   Thunderstorms  Fog  Heavy snow  Heavy precipitations  Wind > 20 kt
SIGMETs :     Misc.  Thunderstorms  Icing  Turbulence  Mountain Waves  Volcanic Ashes







- Airport Elevation : 1411 ft
- IATA code : ZHI


LSZG - Grenchen

CURRENT METAR :
  • 182350Z AUTO VRB01KT CAVOK 15/13 Q1021

EXPIRED METARs :
  • 182320Z AUTO 00000KT CAVOK 15/13 Q1021
  • 182250Z AUTO 06001KT 9999 NCD 14/13 Q1021
  • 182220Z AUTO 22002KT 9999 FEW130 //////TCU 16/14 Q1020
  • 182150Z AUTO 20003KT 9999 //////TCU 17/14 Q1020
  • 182120Z AUTO 02003KT 350V100 9999 //////TCU 19/14 Q1020

Expired Forecast.
ATIS : +41 32 396 96 33
No reported NOTAMs for that airfield.



MET'MAP, your aeronautical weather chart ! - Copyright ORBIFLY December 2007 - Disclaimer

ORBIFLY MET'MAP TEAM :

Programming & Development : Alexandra Zaïnal
Concept & Development : Baudouin d'Aumeries
Co-Development & Prog : Marc-Olivier Méhu
Technical & hardware support : Manuel Goepfert

Contact : metmap@orbifly.com




SOURCES & CREDITS :

   NOAA